User: anonymous   Login
Location: Unspecified
(0.0000°N, 0.0000°E)
Time: 15:33:52
(UTC+00:00)
Language:

UME 2 Rocket - Orbit

View from above orbital plane
View from above orbital plane
View from above satellite
View from above satellite

Ground track
Ground track

The orbit data is extracted from the following two-line orbital elements,

1 10674U 78018A   18115.49639295 -.00000029  00000-0  33297-4 0  9995
2 10674  69.3594 128.9182 0160878  97.5706  64.8304 13.43607211971337
Epoch (UTC): 25 April 2018 11:54:48
Eccentricity: 0.0160878
inclination: 69.3594°
perigee height: 975 km
apogee height: 1216 km
right ascension of ascending node: 128.9182°
argument of perigee: 97.5706°
revolutions per day: 13.43607211
mean anomaly at epoch: 64.8304°
orbit number at epoch: 97133

The dashed part of the orbit path shows where the satellite is in the earth's shadow,  

DLR